Wind_Speed
26 25 24 22 22 21 22 24 26 27 29 31 32 33 34 33 32 32 29 29 28 29 30 30 30 31 32 31 31 31 33 33 35 37 38 39 41 43 44 44 45 47 48
28 27 26 24 23 23 23 25 27 29 31 33 34 37 35 33 33 32 30 28 28 29 29 29 30 32 33 34 34 35 35 35 36 38 39 41 43 44 45 46 47 49 50
29 28 28 26 25 25 25 27 28 31 33 35 37 39 38 36 34 30 28 28 28 28 29 30 31 32 34 35 36 37 37 38 39 40 42 44 45 47 47 48 50 52 53
30 30 29 28 27 27 28 30 32 34 36 38 39 40 39 38 34 30 27 25 27 28 29 30 32 34 36 38 39 40 40 41 42 43 44 46 47 49 50 51 53 55 57
32 31 31 30 30 30 32 33 35 37 40 41 42 41 38 38 35 30 27 26 28 29 31 32 34 37 38 40 41 43 44 45 46 46 48 49 51 52 54 55 56 58 60
34 33 32 32 33 34 35 37 38 40 41 43 42 42 40 37 35 32 31 31 32 33 34 35 38 40 42 44 46 47 47 48 50 51 52 53 55 56 58 58 58 59 60
35 35 34 34 35 35 36 37 38 40 41 43 42 42 39 38 36 36 34 35 35 37 38 40 43 44 46 48 50 51 52 53 54 56 57 58 59 60 61 61 61 61 60
32 32 32 31 32 33 34 36 38 39 41 42 41 41 41 39 39 39 40 40 41 42 44 46 48 50 51 52 54 55 55 56 58 59 60 62 62 62 62 62 62 61 61
30 30 30 30 30 31 33 35 37 38 40 41 41 42 42 43 43 44 46 46 47 48 49 51 53 55 56 56 57 58 59 60 61 62 62 62 62 62 62 62 62 62 60
30 30 30 31 32 33 35 36 37 39 41 42 44 45 46 47 48 49 50 50 51 52 54 56 57 58 59 58 59 60 60 61 61 61 61 61 61 61 61 60 62 62 61
31 32 32 33 34 36 37 39 40 41 43 45 46 48 49 50 50 51 52 53 54 55 57 58 58 59 59 60 60 60 61 61 61 61 61 61 60 60 60 61 61 61 61
35 35 35 36 37 38 39 41 43 44 46 47 49 51 52 52 54 55 56 58 58 58 58 59 59 59 59 60 60 60 60 60 60 59 59 59 59 59 60 60 60 60 61
36 37 38 39 40 41 43 45 46 47 49 50 52 54 55 56 58 59 59 60 59 59 59 58 58 59 59 59 58 58 58 58 57 57 58 58 58 58 59 59 59 59 60
39 41 41 42 43 45 47 48 49 51 53 55 56 57 58 58 60 60 60 59 59 59 58 57 57 58 57 57 56 55 55 55 55 56 56 57 56 56 57 56 56 56 55
42 42 44 45 47 48 49 51 52 54 55 56 57 58 59 59 59 59 59 58 58 57 56 56 56 56 55 55 54 53 54 54 55 55 55 55 54 54 53 52 52 50 48
44 45 45 47 49 51 52 53 54 55 56 57 57 58 57 57 57 57 57 56 55 54 53 53 53 53 52 53 53 53 52 52 52 52 52 51 50 49 49 48 46 44 40
43 45 46 48 49 51 54 55 55 55 55 55 55 55 55 55 54 54 53 52 51 50 50 50 50 50 50 50 51 51 51 50 49 48 47 47 45 44 43 42 39 36 31
45 46 47 49 51 52 52 53 53 53 53 53 52 52 51 51 51 50 49 48 48 48 49 49 49 50 50 49 48 48 47 46 46 45 43 42 40 38 36 33 30 27 23
43 45 47 48 50 50 51 51 51 50 50 49 49 48 47 47 47 46 46 46 46 47 47 48 48 48 47 46 46 45 45 44 42 40 38 35 33 31 27 25 22 19 16
43 44 45 46 47 48 48 48 47 46 46 45 44 44 44 43 43 44 44 44 45 46 46 46 46 46 45 44 43 41 40 38 36 34 31 28 25 22 20 16 14 12 11
41 42 43 43 44 44 44 43 42 42 41 40 40 40 41 41 41 42 43 44 45 45 45 44 43 42 40 39 37 35 33 31 28 26 23 20 17 15 12 10 8 8 9
38 38 39 40 39 39 38 37 37 36 36 36 37 37 38 39 40 41 42 43 43 42 41 40 38 36 34 32 30 28 25 23 21 19 16 13 11 9 7 6 6 7 9
34 34 34 34 34 33 33 33 33 33 34 34 35 37 38 39 40 40 41 40 39 38 36 34 32 29 26 24 22 20 18 16 14 12 10 8 6 4 3 4 5 7 8
29 29 29 28 28 29 29 30 30 31 33 34 35 37 38 39 39 39 38 36 34 32 29 26 24 21 20 18 16 14 12 10 8 6 4 3 2 2 3 4 5 7 8
24 24 24 24 25 25 26 27 29 31 33 35 36 37 37 37 35 34 32 29 27 24 22 19 17 16 14 13 11 8 6 4 3 1 1 2 3 4 4 5 6 8 9
19 20 20 21 22 23 25 27 30 32 34 35 35 34 33 31 29 27 25 22 20 18 16 14 12 11 9 8 5 3 2 2 3 4 5 5 5 6 6 7 8 9 10
Wind_Direction
263 265 268 273 280 287 292 298 301 302 301 301 299 297 292 289 286 283 280 280 278 279 279 282 285 288 288 289 292 290 288 288 287 288 288 289 289 288 288 287 287 287 287
263 264 267 271 276 282 287 292 296 297 298 297 295 294 290 289 289 288 286 286 284 286 284 285 289 292 292 293 295 294 292 292 292 291 291 291 290 289 289 288 288 287 287
263 264 265 267 271 277 284 288 291 292 293 293 290 290 289 290 292 291 293 290 288 290 292 291 291 294 296 296 295 296 295 295 295 294 293 293 292 290 290 290 289 288 288
262 261 262 264 270 277 282 286 288 289 289 288 286 285 289 293 293 293 295 295 296 296 297 296 295 298 300 299 298 299 299 298 297 295 294 293 293 292 292 291 290 290 290
260 261 264 267 271 277 280 283 285 285 287 285 284 287 291 295 295 294 297 302 303 302 300 300 300 302 301 299 299 300 299 298 296 295 295 294 294 293 292 292 291 291 291
262 263 266 269 272 276 278 280 282 283 285 285 287 292 296 299 300 301 304 306 306 305 303 304 305 305 303 300 300 300 298 298 296 296 296 295 295 294 293 292 291 291 291
261 264 267 269 271 272 273 276 278 280 285 288 292 298 300 302 304 306 307 306 305 303 301 303 304 303 301 300 299 298 298 297 296 296 295 295 294 294 293 292 292 291 290
262 264 266 267 269 270 271 273 276 280 285 290 294 299 304 305 305 308 309 308 307 303 301 301 301 301 300 298 297 297 296 295 295 294 294 294 293 293 293 293 292 291 290
260 262 264 266 268 269 271 275 279 284 288 291 296 301 303 304 304 305 306 306 304 302 300 299 299 299 298 297 296 294 294 293 293 293 293 293 293 293 293 293 293 292 292
259 262 264 266 269 272 275 278 282 286 289 294 296 298 301 302 303 304 304 303 302 300 299 298 297 297 296 294 293 292 293 293 293 293 293 293 294 294 294 294 294 294 294
261 264 267 270 273 276 279 282 285 289 292 294 295 297 299 300 302 302 303 302 301 299 298 297 296 295 294 293 293 293 293 293 293 293 293 294 294 295 294 295 296 296 295
266 268 270 273 276 278 281 284 288 290 291 292 294 296 298 299 300 301 302 302 301 299 298 297 295 294 293 293 292 292 292 293 294 294 294 295 296 296 296 297 297 296 296
268 270 272 275 277 280 283 286 287 288 290 292 294 296 297 298 299 300 300 300 299 298 297 296 295 294 293 292 292 292 293 294 295 295 296 297 297 297 297 297 296 297 297
269 271 274 276 279 282 284 286 288 290 291 293 294 296 297 298 299 299 299 298 297 297 296 295 294 294 293 293 293 293 293 295 296 296 297 297 297 297 297 297 297 298 299
269 272 275 278 281 283 286 289 291 293 294 296 296 297 297 298 297 298 298 297 296 296 295 294 293 293 293 293 294 294 295 296 296 297 297 297 297 297 297 298 299 300 301
273 275 278 281 285 287 290 293 295 296 297 297 297 297 297 297 297 297 297 296 296 295 294 294 294 294 294 294 294 295 296 297 297 297 297 297 298 298 299 299 300 302 303
278 281 284 287 289 292 295 296 296 296 296 296 296 296 296 296 296 296 296 295 295 294 293 293 293 294 295 295 296 296 296 296 297 297 298 299 299 299 300 302 303 305 306
282 284 287 291 293 295 295 296 296 296 296 295 295 296 296 296 296 296 295 295 294 293 293 294 294 295 295 295 295 295 296 296 297 297 297 298 299 300 302 303 305 306 308
285 288 290 293 294 295 295 295 295 295 295 296 296 296 296 296 296 295 295 295 294 295 295 295 295 295 295 295 295 295 295 296 296 297 298 299 300 302 303 304 306 307 311
286 288 290 292 293 293 294 294 295 295 296 296 296 296 296 296 296 296 296 296 296 296 296 295 295 296 295 295 295 295 296 297 298 298 299 300 301 302 304 305 307 312 318
286 288 290 291 292 293 294 295 296 297 297 297 297 297 297 297 297 297 297 297 297 297 297 297 297 296 296 295 295 296 296 297 298 299 300 301 301 302 305 308 314 322 330
287 289 290 291 293 294 295 296 297 298 298 299 299 299 299 299 299 299 299 299 299 299 298 298 297 297 296 297 297 298 299 299 299 300 300 300 302 306 312 321 331 337 340
288 290 292 293 294 295 297 298 299 300 301 301 302 302 302 302 302 302 301 301 301 300 299 299 299 298 298 299 299 300 300 300 300 301 300 303 308 318 333 346 350 351 353
289 291 293 295 296 298 299 301 302 303 304 305 305 305 305 305 304 304 304 304 303 303 302 302 301 301 302 302 302 301 302 302 304 304 307 318 344 20 29 17 12 10 10
292 295 297 299 300 302 304 306 307 307 308 308 308 308 308 307 307 307 307 307 307 307 307 306 305 305 306 307 308 309 312 317 324 350 62 74 73 66 53 40 31 27 25
296 298 301 304 306 308 310 311 312 312 312 312 312 312 311 311 311 312 313 313 314 315 315 314 314 315 317 321 327 343 21 52 83 92 91 89 83 75 65 55 49 44 37
Height
5858 5859 5860 5861 5861 5861 5861 5860 5858 5856 5853 5851 5848 5845 5842 5838 5836 5833 5831 5831 5830 5828 5826 5826 5825 5824 5823 5822 5820 5819 5817 5816 5813 5811 5808 5806 5804 5802 5799 5797 5794 5792 5789
5851 5853 5854 5855 5856 5856 5855 5854 5852 5850 5848 5845 5842 5839 5835 5830 5828 5826 5824 5823 5823 5821 5819 5819 5818 5816 5815 5813 5812 5811 5809 5807 5804 5802 5799 5797 5795 5792 5789 5786 5783 5780 5777
5845 5847 5848 5848 5849 5849 5848 5848 5846 5844 5842 5839 5835 5831 5827 5823 5820 5819 5818 5816 5815 5814 5812 5811 5810 5808 5806 5805 5803 5802 5799 5797 5795 5792 5789 5787 5784 5781 5778 5775 5771 5767 5764
5838 5840 5841 5841 5842 5842 5841 5841 5839 5837 5835 5832 5829 5824 5820 5816 5813 5811 5810 5809 5808 5807 5805 5804 5802 5800 5798 5796 5794 5792 5789 5787 5784 5781 5779 5776 5772 5769 5766 5763 5758 5754 5750
5832 5833 5834 5835 5835 5835 5834 5834 5832 5829 5827 5824 5821 5816 5812 5808 5806 5804 5803 5802 5801 5799 5798 5796 5794 5792 5790 5787 5785 5782 5779 5776 5773 5770 5767 5764 5760 5756 5753 5750 5746 5740 5735
5825 5826 5827 5828 5828 5828 5827 5826 5825 5822 5819 5816 5812 5809 5805 5801 5799 5797 5795 5794 5793 5792 5790 5788 5785 5783 5780 5778 5775 5772 5769 5765 5762 5758 5754 5750 5747 5742 5738 5735 5731 5727 5721
5817 5819 5820 5821 5821 5820 5820 5819 5817 5814 5812 5809 5805 5801 5798 5795 5793 5790 5788 5787 5785 5783 5782 5779 5776 5773 5771 5768 5764 5760 5757 5753 5749 5745 5741 5736 5732 5727 5723 5719 5716 5712 5707
5810 5811 5812 5813 5813 5813 5812 5811 5809 5807 5805 5801 5797 5794 5791 5788 5785 5782 5781 5779 5778 5775 5772 5770 5766 5763 5759 5756 5752 5748 5744 5740 5736 5731 5727 5722 5717 5712 5707 5703 5699 5696 5692
5804 5805 5806 5806 5806 5806 5805 5803 5801 5799 5797 5793 5790 5786 5783 5781 5777 5775 5772 5770 5768 5765 5762 5759 5755 5751 5747 5743 5739 5735 5730 5726 5722 5717 5712 5707 5701 5696 5691 5686 5681 5678 5675
5798 5799 5799 5799 5799 5798 5797 5795 5793 5791 5788 5784 5781 5778 5776 5773 5769 5766 5763 5760 5757 5753 5750 5746 5742 5737 5733 5729 5725 5721 5716 5711 5707 5702 5697 5691 5686 5681 5675 5670 5664 5659 5655
5791 5792 5792 5791 5790 5789 5788 5786 5784 5781 5779 5776 5772 5769 5766 5763 5759 5756 5752 5748 5745 5741 5737 5732 5728 5723 5719 5714 5710 5705 5701 5696 5691 5687 5682 5676 5671 5665 5660 5654 5648 5642 5637
5784 5784 5783 5783 5782 5781 5779 5777 5775 5772 5769 5766 5763 5759 5755 5751 5748 5744 5739 5735 5731 5726 5722 5717 5713 5708 5704 5699 5695 5690 5686 5681 5677 5672 5667 5661 5656 5650 5645 5638 5632 5626 5620
5776 5775 5775 5774 5773 5772 5770 5768 5765 5763 5760 5756 5752 5749 5744 5740 5736 5731 5726 5722 5717 5712 5707 5702 5698 5693 5689 5684 5680 5675 5671 5666 5662 5657 5652 5647 5641 5636 5630 5623 5617 5611 5605
5766 5766 5765 5764 5763 5762 5760 5758 5755 5752 5748 5745 5740 5736 5732 5727 5722 5717 5712 5707 5702 5697 5693 5688 5683 5679 5674 5670 5665 5661 5657 5652 5648 5643 5638 5632 5627 5622 5616 5610 5603 5597 5591
5757 5756 5755 5754 5753 5751 5749 5746 5743 5740 5736 5732 5727 5723 5718 5713 5708 5703 5698 5693 5688 5683 5678 5673 5668 5664 5660 5655 5651 5647 5643 5639 5634 5629 5624 5618 5613 5608 5602 5597 5591 5585 5579
5746 5746 5745 5743 5741 5739 5736 5733 5730 5726 5722 5718 5714 5709 5704 5699 5694 5688 5683 5678 5673 5668 5664 5659 5655 5651 5646 5642 5638 5634 5630 5626 5621 5616 5610 5605 5600 5595 5589 5584 5579 5574 5569
5736 5735 5733 5731 5729 5726 5723 5720 5716 5713 5708 5704 5699 5695 5690 5685 5679 5674 5669 5665 5660 5655 5651 5647 5642 5638 5634 5630 5625 5621 5617 5613 5608 5603 5598 5593 5588 5584 5579 5574 5569 5564 5560
5725 5723 5721 5719 5716 5713 5710 5707 5703 5699 5695 5690 5685 5680 5676 5671 5666 5661 5656 5652 5647 5643 5639 5634 5630 5626 5622 5617 5613 5609 5605 5600 5597 5592 5588 5583 5578 5574 5570 5566 5561 5557 5554
5714 5712 5710 5707 5704 5701 5697 5694 5690 5685 5681 5676 5671 5667 5662 5657 5653 5648 5644 5639 5635 5631 5626 5622 5618 5613 5609 5605 5601 5597 5592 5589 5585 5581 5578 5574 5570 5566 5563 5559 5556 5553 5550
5703 5701 5699 5696 5693 5689 5686 5682 5677 5673 5668 5663 5659 5654 5650 5645 5641 5636 5632 5628 5623 5619 5614 5610 5606 5601 5597 5593 5589 5585 5581 5578 5575 5572 5569 5566 5563 5560 5557 5555 5553 5550 5548
5693 5691 5688 5685 5682 5678 5674 5670 5665 5661 5656 5652 5647 5643 5638 5634 5630 5625 5621 5616 5612 5607 5602 5598 5594 5589 5585 5581 5578 5575 5572 5569 5566 5564 5562 5559 5557 5555 5554 5552 5550 5548 5546
5683 5681 5678 5675 5672 5668 5664 5660 5655 5651 5646 5642 5637 5633 5628 5624 5619 5614 5609 5604 5600 5595 5590 5586 5582 5578 5575 5572 5569 5566 5564 5562 5560 5558 5556 5555 5553 5552 5551 5550 5549 5547 5545
5675 5672 5669 5666 5662 5659 5655 5651 5646 5642 5637 5633 5628 5623 5618 5613 5608 5603 5598 5593 5588 5584 5580 5576 5572 5569 5566 5564 5562 5560 5558 5556 5555 5554 5552 5552 5551 5551 5550 5549 5548 5547 5545
5667 5664 5661 5658 5655 5651 5647 5643 5638 5634 5629 5624 5619 5614 5608 5603 5598 5593 5588 5583 5578 5574 5570 5567 5564 5562 5560 5558 5556 5555 5553 5552 5552 5551 5550 5550 5550 5550 5550 5549 5548 5546 5544
5660 5658 5655 5651 5648 5644 5640 5635 5631 5626 5621 5616 5610 5604 5598 5593 5588 5583 5578 5574 5570 5567 5564 5561 5559 5557 5555 5554 5552 5551 5551 5550 5550 5550 5550 5550 5550 5550 5550 5549 5548 5547 5545
5655 5652 5649 5646 5642 5638 5634 5629 5624 5618 5613 5607 5601 5595 5589 5584 5579 5575 5571 5567 5564 5561 5559 5556 5555 5553 5552 5551 5550 5550 5549 5550 5550 5550 5550 5551 5551 5551 5550 5550 5549 5548 5546